ORBCOMM FM118 (41183 NORAD) Tracking and Keplerian Element Data

This shows tracking and keplerian element data for the satellite.

Feedback or suggestion? Click here.




ElementValue
Catalog41183
NameORBCOMM FM118
Epoch Orbit44981
Epoch Day159.67566168
Epoch Year2024
RAAN253.5086
Inclination47.0039
Eccentricity0.0002938
Argument of Perigee250.7353
Mean Anonmoly109.3214
Mean Motion14.56718616
Decay Rate1.987E-05
L11 41183U 15081E 24159.67566168 .00001987 00000+0 47757-3 0 9995
L22 41183 47.0039 253.5086 0002938 250.7353 109.3214 14.56718616449819



Live tracking and technical data element details for ORBCOMM FM118 (NORAD 41183). ORBCOMM FM118 can be tracked NOW for your location showing map with azimuth and elevation plus other details from your city location.







IsCatalogInMostPopularTable: catalog: 41183, numindb: 599
Update: records affected: 1



GetName: 41183 ORBCOMM FM118

Hit Count: updated at: Sun, 23 Jun 2024 02:17:59 GMT